Location: Boda
(47.1872°N, 9.5454°E)
Time: 18:23:11
(UTC+00:00)

Cosmos 1707 - Pass Details

Date: 14 May 2021
Orbit: 516 x 528 km, 82.5° (Epoch: 15 June)

Event Time Altitude Azimuth Distance (km) Brightness Sun altitude
Exits shadow 01:12:34 42° 262° (W) 753 3.2 -19.3°
Maximum altitude 01:13:01 44° 283° (WNW) 727 3.2 -19.3°
Drops below altitude 10° 01:16:43 10° 357° (N) 1,756 6.2 -19.0°
Sets 01:18:57 0° 4° (N) 2,649 7.4 -18.8°
